Location: Ocean City
(38.3360°N, 75.0850°W)
Time: 13:25:16
(UTC-05:00)

Explorer 11/Cluster Stage 4 - Pass Details

Date: 16 November 2019
Orbit: 467 x 1259 km, 28.8° (Epoch: 13 December)

Event Time Altitude Azimuth Distance (km) Brightness Sun altitude
Rises 00:13:19 0° 261° (W) 3,954 - -69.4°
Reaches altitude 10° 00:16:12 10° 254° (WSW) 3,078 - -69.2°
Maximum altitude 00:23:19 38° 189° (S) 1,797 - -68.6°
Drops below altitude 10° 00:30:46 10° 125° (SE) 3,218 - -68.0°
Sets 00:33:52 0° 118° (ESE) 4,151 - -67.6°
